"startDT [UTC]","vpos","CH4 [ppm]","stdev(CH4) [ppm]","CO2 [ppm]","stdev(CO2) [ppm]","H2O_reported [%]","stdev(H2O_reported)","CavityPressure [torr]","CavityTemp [C]","OutletValve","CH4_dry [ppm]","CO2_dry [ppm]","DasTemp [C]","EtalonTemp [C]","WarmBoxTemp [C]","MPVPosition","T_ECpre [C]","T_EC1 [C]","T_EC2 [C]","p_inlet [hPa]","p_in [hPa]","p_out [hPa]","T_inlet [C]","RH_inlet [%]","dwpt_inlet [C]","T_vent [C]","RH_vent [%]","dwpt_vent [C]","flow_vent [l min-1]","flow_inlet [l min-1]","dwpt_sample [C]","T_room [C]"
2015-02-09 00:00:00,3.0,1.88803,0.03787,399.353,2.559,0.0066,0.0104,140.350,45.000,31066.70064,1.89075,399.540,31.663,45.069,45.000,0.00,0.09,-272.68,-272.75,-12,526,1,18.4,1.2,-36.8,18.7,3.0,-27.4,5.73,2.48,-24.6,24.7
2015-02-09 00:01:00,3.0,1.87688,0.00036,397.320,0.056,0.0007,0.0015,140.008,45.000,31278.35220,1.87686,397.326,31.679,45.069,45.000,0.00,0.09,-272.68,-272.74,-12,526,1,18.4,1.2,-36.6,18.7,3.0,-27.4,5.73,2.48,-24.6,24.8
2015-02-09 00:02:00,3.0,1.87665,0.00044,397.331,0.087,0.0008,0.0019,140.002,45.000,31334.64186,1.87667,397.332,31.678,45.069,45.000,0.00,0.09,-272.69,-272.75,-12,526,1,18.4,1.2,-36.6,18.8,3.0,-27.4,5.73,2.51,-24.7,24.8
2015-02-09 00:03:00,3.0,1.87665,0.00031,397.561,0.061,0.0006,0.0017,140.005,45.000,31382.63616,1.87667,397.560,31.682,45.069,45.000,0.00,0.09,-272.69,-272.75,-12,526,1,18.5,1.2,-36.6,18.8,3.0,-27.4,5.73,2.51,-24.6,24.8
2015-02-09 00:04:00,3.0,1.87672,0.00045,397.639,0.038,0.0004,0.0015,140.001,45.000,31419.52730,1.87673,397.640,31.687,45.068,45.000,0.00,0.09,-272.68,-272.75,-12,526,1,18.5,1.2,-36.8,18.8,3.0,-27.4,5.73,2.50,-24.6,24.8
2015-02-09 00:05:00,3.0,1.87673,0.00041,397.655,0.029,0.0014,0.0020,140.003,45.000,31454.94706,1.87675,397.662,31.664,45.068,45.000,0.00,0.09,-272.70,-272.75,-12,526,1,18.5,1.2,-36.8,18.8,3.0,-27.4,5.73,2.47,-24.6,24.9
2015-02-09 00:06:00,3.0,1.87660,0.00028,397.642,0.033,-0.0002,0.0011,140.002,45.000,31484.77694,1.87661,397.641,31.626,45.068,45.000,0.00,0.09,-272.69,-272.75,-12,526,1,18.5,1.2,-36.8,18.8,3.0,-27.4,5.73,2.44,-24.6,24.9
2015-02-09 00:07:00,3.0,1.87649,0.00042,397.632,0.032,0.0007,0.0018,140.000,45.000,31507.64593,1.87650,397.635,31.626,45.069,45.000,0.00,0.09,-272.69,-272.74,-12,526,1,18.6,1.2,-36.7,18.9,3.0,-27.3,5.73,2.45,-24.6,24.9
2015-02-09 00:08:00,3.0,1.87671,0.00025,397.610,0.026,0.0005,0.0017,140.002,45.000,31528.95035,1.87672,397.613,31.625,45.069,45.001,0.00,0.09,-272.69,-272.74,-12,526,1,18.6,1.2,-36.8,18.9,3.0,-27.3,5.73,2.48,-24.6,25.0
2015-02-09 00:09:00,3.0,1.87655,0.00023,397.630,0.028,0.0001,0.0025,140.002,45.000,31545.58341,1.87657,397.631,31.625,45.069,45.000,0.00,0.09,-272.69,-272.75,-12,526,1,18.6,1.2,-36.7,18.9,3.0,-27.3,5.73,2.50,-24.6,25.0
2015-02-09 00:10:00,3.0,1.87658,0.00036,397.638,0.039,-0.0002,0.0016,140.005,45.000,31560.73446,1.87658,397.636,31.625,45.069,45.000,0.00,0.09,-272.69,-272.74,-12,526,1,18.7,1.2,-36.7,18.9,3.0,-27.3,5.73,2.51,-24.6,25.1
2015-02-09 00:11:00,3.0,1.87657,0.00030,397.643,0.036,-0.0009,0.0021,140.002,45.000,31572.93385,1.87656,397.638,31.626,45.069,45.000,0.00,0.09,-272.69,-272.74,-12,527,0,18.7,1.2,-36.7,19.0,3.0,-27.3,5.73,2.50,-24.6,25.1
2015-02-09 00:12:00,3.0,1.87660,0.00030,397.651,0.036,0.0005,0.0018,140.002,45.000,31584.97144,1.87659,397.653,31.606,45.069,45.000,0.00,0.09,-272.69,-272.75,-12,527,0,18.7,1.2,-36.7,19.0,3.0,-27.2,5.73,2.48,-24.6,25.2
2015-02-09 00:13:00,3.0,1.87683,0.00031,397.673,0.023,-0.0009,0.0024,140.002,45.000,31593.20141,1.87682,397.669,31.589,45.069,45.000,0.00,0.09,-272.69,-272.75,-12,527,0,18.8,1.2,-36.6,19.0,3.0,-27.2,5.73,2.45,-24.6,25.2
2015-02-09 00:14:00,3.0,1.87645,0.00035,397.642,0.037,-0.0010,0.0018,139.999,45.000,31603.58793,1.87643,397.637,31.573,45.069,45.000,0.00,0.09,-272.68,-272.74,-12,527,0,18.8,1.2,-36.4,19.1,3.0,-27.2,5.73,2.44,-24.6,25.2
2015-02-09 00:15:00,3.0,1.87636,0.00035,397.644,0.024,-0.0003,0.0015,139.998,45.000,31612.16818,1.87636,397.642,31.566,45.069,45.000,0.00,0.09,-272.69,-272.75,-13,527,0,18.9,1.3,-36.2,19.1,3.0,-27.2,5.73,2.47,-24.6,25.2
2015-02-09 00:16:00,3.0,1.87642,0.00043,397.652,0.022,-0.0004,0.0022,139.999,45.000,31618.48870,1.87641,397.651,31.565,45.069,45.000,0.00,0.09,-272.69,-272.75,-12,527,0,18.9,1.3,-35.9,19.1,3.0,-27.2,5.73,2.49,-24.6,25.2
2015-02-09 00:17:00,3.0,1.87661,0.00028,397.643,0.038,-0.0010,0.0018,140.000,45.000,31624.18933,1.87657,397.638,31.567,45.069,45.000,0.00,0.09,-272.69,-272.75,-12,527,0,19.0,1.3,-35.9,19.1,3.0,-27.2,5.73,2.51,-24.6,25.3
2015-02-09 00:18:00,3.0,1.87648,0.00031,397.660,0.024,-0.0012,0.0019,139.997,45.000,31628.58811,1.87647,397.654,31.587,45.069,45.000,0.00,0.09,-272.68,-272.74,-12,527,0,19.0,1.3,-36.0,19.2,3.0,-27.2,5.73,2.51,-24.6,25.3
2015-02-09 00:19:00,3.0,1.87637,0.00032,397.631,0.024,-0.0006,0.0011,140.001,45.000,31634.23971,1.87637,397.629,31.614,45.069,45.000,0.00,0.09,-272.69,-272.75,-12,527,0,19.1,1.3,-36.0,19.2,3.0,-27.2,5.73,2.48,-24.6,25.3
2015-02-09 00:20:00,0.0,1.93190,0.02701,403.787,3.420,0.0230,0.0138,139.672,45.000,28127.31057,1.92937,403.726,31.623,45.069,45.000,0.00,0.09,-272.69,-272.75,-13,10,0,19.1,1.3,-35.7,19.3,3.0,-27.2,5.73,2.48,-24.6,25.4
2015-02-09 00:21:00,0.0,1.94513,0.00027,405.495,0.027,0.0348,0.0018,139.996,45.000,27981.10667,1.94581,405.665,31.623,45.069,45.000,0.00,0.09,-272.69,-272.75,-13,10,0,19.2,1.3,-35.8,19.3,3.0,-27.1,5.73,2.44,-24.6,25.4
2015-02-09 00:22:00,0.0,1.94502,0.00039,405.475,0.037,0.0361,0.0017,139.995,45.000,27929.61606,1.94568,405.653,31.624,45.068,45.000,0.00,0.09,-272.69,-272.75,-13,10,0,19.2,1.3,-35.7,19.3,2.9,-27.1,5.73,2.46,-24.6,25.4
2015-02-09 00:23:00,0.0,1.94541,0.00050,405.474,0.029,0.0359,0.0026,139.997,45.000,27886.41659,1.94609,405.648,31.621,45.068,45.000,0.00,0.09,-272.69,-272.74,-12,10,0,19.3,1.3,-35.7,19.4,2.9,-27.1,5.73,2.51,-24.5,25.4
2015-02-09 00:24:00,0.0,1.94667,0.00055,405.479,0.042,0.0363,0.0011,139.997,45.000,27852.57136,1.94733,405.655,31.623,45.068,45.000,0.00,0.09,-272.68,-272.74,-13,10,0,19.3,1.3,-35.8,19.4,2.9,-27.2,5.73,2.52,-24.5,25.4
2015-02-09 00:25:00,0.0,1.94617,0.00065,405.479,0.024,0.0361,0.0014,139.999,45.000,27822.48954,1.94692,405.655,31.625,45.068,45.000,0.00,0.09,-272.69,-272.75,-13,10,0,19.3,1.3,-35.9,19.4,2.9,-27.2,5.73,2.50,-24.5,25.4
2015-02-09 00:26:00,0.0,1.94527,0.00037,405.463,0.036,0.0350,0.0018,140.000,45.000,27798.92815,1.94595,405.633,31.628,45.068,45.000,0.00,0.09,-272.69,-272.75,-13,10,0,19.3,1.3,-35.8,19.4,2.9,-27.2,5.73,2.46,-24.5,25.4
2015-02-09 00:27:00,0.0,1.94515,0.00031,405.455,0.026,0.0365,0.0012,139.998,45.000,27777.48216,1.94586,405.634,31.624,45.068,45.000,0.00,0.09,-272.68,-272.74,-13,10,0,19.3,1.3,-35.7,19.5,2.9,-27.1,5.73,2.44,-24.5,25.4
2015-02-09 00:28:00,0.0,1.94482,0.00049,405.440,0.039,0.0364,0.0016,139.995,45.000,27758.63019,1.94552,405.618,31.625,45.069,45.000,0.00,0.09,-272.69,-272.75,-13,10,0,19.3,1.3,-35.5,19.5,2.9,-27.1,5.73,2.45,-24.5,25.4
2015-02-09 00:29:00,0.0,1.94456,0.00038,405.437,0.025,0.0375,0.0019,140.000,45.000,27744.32917,1.94530,405.618,31.624,45.069,45.000,0.00,0.09,-272.69,-272.75,-13,10,0,19.3,1.3,-35.4,19.5,2.9,-27.1,5.73,2.48,-24.5,25.4
2015-02-09 00:30:00,0.0,1.94470,0.00030,405.427,0.033,0.0380,0.0018,139.998,45.000,27732.01441,1.94541,405.613,31.623,45.069,45.000,0.00,0.09,-272.69,-272.75,-13,10,0,19.3,1.3,-35.5,19.5,2.9,-27.1,5.73,2.51,-24.5,25.4
2015-02-09 00:31:00,0.0,1.94474,0.00045,405.422,0.039,0.0377,0.0011,139.998,45.000,27721.26283,1.94548,405.606,31.625,45.069,45.000,0.00,0.09,-272.69,-272.74,-13,10,0,19.3,1.3,-35.5,19.5,2.9,-27.1,5.73,2.52,-24.5,25.4
2015-02-09 00:32:00,0.0,1.94493,0.00044,405.422,0.035,0.0377,0.0017,139.999,45.000,27710.92114,1.94561,405.606,31.626,45.068,45.000,0.00,0.09,-272.68,-272.74,-13,10,-0,19.3,1.3,-35.4,19.5,2.9,-27.1,5.73,2.48,-24.5,25.4
2015-02-09 00:33:00,0.0,1.94497,0.00045,405.424,0.026,0.0362,0.0014,140.000,45.000,27705.02270,1.94565,405.599,31.625,45.068,45.000,0.00,0.09,-272.69,-272.75,-13,10,0,19.2,1.3,-35.3,19.5,2.9,-27.1,5.73,2.45,-24.5,25.4
2015-02-09 00:34:00,0.0,1.94547,0.00026,405.400,0.027,0.0367,0.0020,140.001,45.000,27699.76548,1.94618,405.581,31.625,45.069,45.000,0.00,0.09,-272.69,-272.75,-13,10,-0,19.3,1.3,-35.3,19.5,2.9,-27.1,5.73,2.44,-24.5,25.4
2015-02-09 00:35:00,0.0,1.94549,0.00035,405.414,0.036,0.0367,0.0017,140.001,45.000,27694.74999,1.94618,405.592,31.653,45.068,45.000,0.00,0.09,-272.69,-272.75,-13,10,-0,19.3,1.4,-35.3,19.5,2.9,-27.0,5.73,2.46,-24.5,25.4
2015-02-09 00:36:00,0.0,1.94577,0.00041,405.420,0.028,0.0380,0.0015,140.001,45.000,27690.94501,1.94648,405.605,31.682,45.068,45.000,0.00,0.09,-272.69,-272.75,-13,10,-0,19.2,1.3,-35.3,19.5,3.0,-27.0,5.73,2.50,-24.5,25.4
2015-02-09 00:37:00,0.0,1.94652,0.00073,405.428,0.048,0.0373,0.0014,140.000,45.000,27686.07615,1.94725,405.610,31.690,45.068,45.000,0.00,0.09,-272.69,-272.74,-13,10,-0,19.2,1.3,-35.3,19.5,3.0,-27.0,5.73,2.51,-24.5,25.4
2015-02-09 00:38:00,0.0,1.94561,0.00032,405.399,0.037,0.0375,0.0016,140.000,45.000,27680.59204,1.94635,405.581,31.693,45.068,45.000,0.00,0.09,-272.68,-272.74,-13,10,-0,19.2,1.4,-35.2,19.5,2.9,-27.0,5.73,2.50,-24.5,25.4
2015-02-09 00:39:00,0.0,1.94538,0.00033,405.373,0.036,0.0387,0.0017,140.000,45.000,27677.21604,1.94616,405.561,31.688,45.068,45.000,0.00,0.09,-272.69,-272.74,-13,10,-0,19.2,1.4,-35.0,19.5,3.0,-27.0,5.73,2.47,-24.4,25.4
2015-02-09 00:40:00,0.0,1.94473,0.00038,405.382,0.019,0.0389,0.0017,139.997,45.000,27675.73645,1.94545,405.572,31.685,45.068,45.000,0.00,0.09,-272.69,-272.74,-13,10,-0,19.2,1.4,-34.9,19.5,3.0,-27.0,5.73,2.44,-24.4,25.4
2015-02-09 00:41:00,0.0,1.94461,0.00044,405.383,0.027,0.0389,0.0021,139.998,45.000,27673.55781,1.94539,405.573,31.687,45.068,45.000,0.00,0.09,-272.68,-272.74,-13,10,-0,19.2,1.4,-34.7,19.5,2.9,-27.0,5.73,2.45,-24.4,25.4
2015-02-09 00:42:00,0.0,1.94444,0.00042,405.372,0.026,0.0403,0.0020,140.003,45.000,27672.44364,1.94518,405.568,31.700,45.068,45.000,0.00,0.09,-272.69,-272.75,-13,10,-0,19.2,1.5,-34.6,19.5,2.9,-27.0,5.73,2.48,-24.4,25.4
2015-02-09 00:43:00,0.0,1.94438,0.00035,405.386,0.029,0.0411,0.0017,140.001,45.000,27669.59440,1.94516,405.586,31.747,45.068,45.000,0.00,0.09,-272.69,-272.75,-13,11,-0,19.2,1.5,-34.4,19.5,3.0,-27.0,5.73,2.51,-24.4,25.4
2015-02-09 00:44:00,0.0,1.94431,0.00031,405.387,0.028,0.0409,0.0019,140.000,45.000,27667.21329,1.94510,405.586,31.756,45.068,44.999,0.00,0.09,-272.68,-272.74,-13,11,-0,19.2,1.5,-34.4,19.5,3.0,-27.0,5.73,2.51,-24.4,25.4
2015-02-09 00:45:00,0.0,1.94399,0.00034,405.358,0.025,0.0412,0.0019,139.998,45.000,27666.82124,1.94479,405.559,31.764,45.068,45.000,0.00,0.09,-272.69,-272.74,-13,10,-0,19.2,1.5,-34.4,19.5,3.0,-27.0,5.73,2.50,-24.4,25.4
2015-02-09 00:46:00,0.0,1.94373,0.00042,405.361,0.040,0.0412,0.0020,140.000,45.000,27666.53674,1.94453,405.562,31.751,45.068,45.000,0.00,0.09,-272.69,-272.75,-13,10,-0,19.1,1.5,-34.2,19.5,3.0,-27.0,5.73,2.45,-24.4,25.4
2015-02-09 00:47:00,0.0,1.94387,0.00039,405.354,0.028,0.0419,0.0014,139.999,45.000,27665.19032,1.94469,405.557,31.747,45.068,45.000,0.00,0.09,-272.68,-272.74,-13,11,-0,19.1,1.5,-34.2,19.5,2.9,-27.0,5.73,2.44,-24.4,25.3
2015-02-09 00:48:00,0.0,1.94349,0.00036,405.341,0.031,0.0423,0.0017,140.003,45.000,27666.52633,1.94428,405.549,31.730,45.068,45.000,0.00,0.09,-272.69,-272.75,-13,11,-0,19.1,1.5,-34.0,19.5,2.9,-27.1,5.73,2.46,-24.4,25.3
2015-02-09 00:49:00,0.0,1.94329,0.00038,405.315,0.027,0.0432,0.0014,140.003,45.000,27668.11514,1.94412,405.524,31.722,45.069,45.000,0.00,0.09,-272.69,-272.74,-13,11,-0,19.1,1.6,-33.8,19.5,3.0,-27.0,5.73,2.49,-24.4,25.3
2015-02-09 00:50:00,0.0,1.94298,0.00032,405.303,0.036,0.0441,0.0016,140.001,45.000,27667.87515,1.94386,405.518,31.751,45.069,45.000,0.00,0.09,-272.68,-272.75,-13,10,-0,19.1,1.6,-33.7,19.5,3.0,-27.0,5.73,2.51,-24.4,25.4
2015-02-09 00:51:00,0.0,1.94323,0.00040,405.306,0.027,0.0436,0.0019,140.001,45.000,27667.78507,1.94405,405.518,31.774,45.068,45.000,0.00,0.09,-272.69,-272.74,-13,10,-0,19.1,1.6,-33.7,19.5,2.9,-27.0,5.73,2.51,-24.4,25.4
2015-02-09 00:52:00,0.0,1.94315,0.00032,405.297,0.029,0.0442,0.0010,140.000,45.000,27666.40011,1.94402,405.513,31.804,45.068,44.999,0.00,0.09,-272.69,-272.74,-13,11,-0,19.1,1.6,-33.5,19.4,3.0,-27.0,5.73,2.48,-24.4,25.4
2015-02-09 00:53:00,0.0,1.94277,0.00026,405.292,0.035,0.0443,0.0018,139.998,45.000,27666.39730,1.94358,405.506,31.806,45.068,45.000,0.00,0.09,-272.69,-272.74,-13,11,-0,19.0,1.6,-33.6,19.4,3.0,-27.0,5.73,2.44,-24.3,25.3
2015-02-09 00:54:00,0.0,1.94272,0.00032,405.296,0.035,0.0444,0.0017,140.001,45.000,27667.62612,1.94359,405.515,31.769,45.068,44.999,0.00,0.09,-272.69,-272.73,-13,11,-0,19.0,1.6,-33.4,19.4,2.9,-27.1,5.73,2.44,-24.4,25.3
2015-02-09 00:55:00,0.0,1.94271,0.00046,405.277,0.028,0.0455,0.0013,139.997,45.000,27666.09792,1.94358,405.498,31.760,45.068,45.000,0.00,0.09,-272.68,-272.75,-13,10,-0,19.0,1.7,-33.2,19.4,3.0,-27.1,5.73,2.47,-24.4,25.3
2015-02-09 00:56:00,0.0,1.94255,0.00040,405.287,0.035,0.0461,0.0014,139.996,45.000,27665.33418,1.94342,405.511,31.759,45.068,45.000,0.00,0.09,-272.69,-272.75,-13,10,-0,19.0,1.7,-33.2,19.4,3.0,-27.1,5.73,2.50,-24.4,25.3
2015-02-09 00:57:00,0.0,1.94262,0.00035,405.289,0.026,0.0462,0.0013,140.000,45.000,27665.87623,1.94349,405.513,31.757,45.068,45.000,0.00,0.09,-272.68,-272.74,-13,11,-0,19.0,1.7,-33.1,19.4,2.9,-27.1,5.73,2.52,-24.4,25.3
2015-02-09 00:58:00,0.0,1.94266,0.00038,405.269,0.039,0.0473,0.0019,140.001,45.000,27665.84154,1.94358,405.499,31.757,45.068,45.000,0.00,0.09,-272.68,-272.74,-13,11,-0,18.9,1.7,-33.0,19.4,3.0,-27.1,5.73,2.50,-24.4,25.3
2015-02-09 00:59:00,0.0,1.94269,0.00028,405.299,0.034,0.0465,0.0018,140.000,45.000,27666.14229,1.94357,405.526,31.751,45.069,45.000,0.00,0.09,-272.69,-272.75,-13,10,-0,18.9,1.7,-33.0,19.4,3.0,-27.1,5.73,2.47,-24.3,25.3
2015-02-09 01:00:00,0.0,1.94252,0.00031,405.260,0.042,0.0464,0.0023,139.999,45.000,27665.32378,1.94340,405.486,31.766,45.068,45.000,0.00,0.09,-272.69,-272.75,-13,10,-0,18.9,1.7,-33.1,19.4,2.9,-27.1,5.73,2.44,-24.4,25.3
2015-02-09 01:01:00,0.0,1.94257,0.00040,405.267,0.043,0.0467,0.0016,140.000,45.000,27665.47771,1.94345,405.495,31.778,45.068,45.000,0.00,0.09,-272.68,-272.74,-13,11,-0,18.9,1.7,-33.0,19.4,2.9,-27.1,5.73,2.45,-24.4,25.3
2015-02-09 01:02:00,0.0,1.94282,0.00028,405.272,0.027,0.0473,0.0014,140.002,45.000,27663.78818,1.94374,405.502,31.760,45.068,45.000,0.00,0.09,-272.69,-272.75,-13,11,-0,18.9,1.8,-32.9,19.3,2.9,-27.1,5.73,2.47,-24.4,25.2
2015-02-09 01:03:00,0.0,1.94260,0.00031,405.268,0.024,0.0480,0.0015,139.998,45.000,27664.06325,1.94350,405.502,31.751,45.068,45.000,0.00,0.09,-272.70,-272.75,-13,11,-0,18.9,1.8,-32.8,19.3,3.0,-27.1,5.73,2.51,-24.4,25.2
2015-02-09 01:04:00,0.0,1.94287,0.00034,405.272,0.035,0.0476,0.0013,140.002,45.000,27661.85248,1.94379,405.504,31.750,45.068,45.000,0.00,0.09,-272.67,-272.74,-13,11,-0,18.9,1.8,-32.7,19.3,3.0,-27.1,5.73,2.52,-24.4,25.2
2015-02-09 01:05:00,0.0,1.94295,0.00029,405.292,0.030,0.0478,0.0020,140.000,45.000,27660.60898,1.94388,405.524,31.750,45.068,45.000,0.00,0.09,-272.69,-272.75,-13,10,-0,18.9,1.8,-32.7,19.3,2.9,-27.1,5.73,2.49,-24.3,25.2
2015-02-09 01:06:00,0.0,1.94305,0.00038,405.303,0.038,0.0483,0.0021,139.999,45.000,27659.66623,1.94398,405.539,31.749,45.068,45.000,0.00,0.09,-272.69,-272.74,-13,10,-0,18.9,1.8,-32.6,19.3,3.0,-27.1,5.73,2.46,-24.3,25.2
2015-02-09 01:07:00,0.0,1.94274,0.00037,405.278,0.021,0.0477,0.0018,139.999,45.000,27659.03458,1.94367,405.510,31.723,45.068,45.000,0.00,0.09,-272.68,-272.74,-13,11,-0,18.9,1.8,-32.6,19.3,3.0,-27.1,5.73,2.44,-24.3,25.2
2015-02-09 01:08:00,0.0,1.94279,0.00039,405.279,0.024,0.0486,0.0011,139.999,45.000,27658.53919,1.94370,405.517,31.719,45.069,45.001,0.00,0.09,-272.68,-272.75,-13,11,-0,18.9,1.8,-32.7,19.3,3.0,-27.1,5.73,2.45,-24.4,25.2
2015-02-09 01:09:00,0.0,1.94260,0.00046,405.275,0.043,0.0491,0.0018,140.001,45.000,27659.10470,1.94353,405.514,31.726,45.069,45.000,0.00,0.09,-272.69,-272.75,-13,10,-0,18.9,1.8,-32.6,19.3,2.9,-27.1,5.73,2.48,-24.4,25.2
2015-02-09 01:10:00,0.0,1.94275,0.00034,405.282,0.024,0.0493,0.0008,140.000,45.000,27658.72305,1.94370,405.525,31.745,45.068,45.000,0.00,0.09,-272.69,-272.74,-13,10,-0,18.9,1.8,-32.5,19.3,3.0,-27.1,5.73,2.51,-24.4,25.2
2015-02-09 01:11:00,0.0,1.94231,0.00047,405.252,0.032,0.0495,0.0017,140.001,45.000,27661.08921,1.94329,405.493,31.750,45.068,45.000,0.00,0.09,-272.67,-272.73,-13,10,-0,18.9,1.8,-32.5,19.3,3.0,-27.1,5.73,2.51,-24.4,25.2
2015-02-09 01:12:00,0.0,1.94233,0.00040,405.245,0.034,0.0489,0.0017,139.999,45.000,27659.08433,1.94326,405.482,31.748,45.068,45.000,0.00,0.09,-272.69,-272.74,-13,11,-0,18.9,1.8,-32.5,19.3,3.0,-27.1,5.73,2.49,-24.4,25.2
2015-02-09 01:13:00,0.0,1.94263,0.00035,405.263,0.041,0.0488,0.0015,140.001,45.000,27658.96559,1.94354,405.501,31.743,45.068,45.000,0.00,0.09,-272.68,-272.75,-13,11,-0,18.9,1.8,-32.5,19.3,3.0,-27.1,5.73,2.46,-24.4,25.2
2015-02-09 01:14:00,0.0,1.94287,0.00033,405.276,0.039,0.0483,0.0013,140.001,45.000,27657.33967,1.94381,405.510,31.735,45.068,45.000,0.00,0.09,-272.68,-272.74,-13,10,-0,18.8,1.8,-32.5,19.3,3.0,-27.1,5.73,2.44,-24.4,25.2
2015-02-09 01:15:00,0.0,1.94323,0.00048,405.265,0.039,0.0485,0.0014,139.998,45.000,27657.94840,1.94412,405.502,31.702,45.068,45.000,0.00,0.09,-272.69,-272.74,-13,10,-0,18.8,1.8,-32.6,19.3,3.0,-27.2,5.73,2.44,-24.4,25.2
2015-02-09 01:16:00,0.0,1.94338,0.00037,405.275,0.027,0.0477,0.0018,139.999,45.000,27656.91446,1.94431,405.508,31.697,45.068,45.000,0.00,0.09,-272.69,-272.75,-13,11,-0,18.8,1.8,-32.7,19.3,3.0,-27.1,5.73,2.49,-24.4,25.2
2015-02-09 01:17:00,0.0,1.94335,0.00040,405.258,0.034,0.0482,0.0016,140.003,45.000,27657.38258,1.94425,405.493,31.705,45.068,45.000,0.00,0.09,-272.69,-272.75,-13,11,-0,18.8,1.8,-32.7,19.3,3.0,-27.1,5.73,2.51,-24.4,25.2
2015-02-09 01:18:00,0.0,1.94360,0.00035,405.265,0.028,0.0485,0.0017,139.999,45.000,27655.25945,1.94452,405.500,31.709,45.068,45.000,0.00,0.09,-272.70,-272.75,-13,11,-0,18.8,1.8,-32.8,19.3,3.0,-27.1,5.73,2.51,-24.4,25.2
2015-02-09 01:19:00,0.0,1.94405,0.00046,405.271,0.035,0.0476,0.0015,140.000,45.000,27655.28889,1.94494,405.503,31.707,45.068,45.000,0.00,0.09,-272.69,-272.75,-13,10,-0,18.8,1.8,-32.7,19.3,3.0,-27.1,5.73,2.48,-24.4,25.2
2015-02-09 01:20:00,0.0,1.94452,0.00046,405.262,0.027,0.0472,0.0012,140.001,45.000,27657.21208,1.94545,405.493,31.699,45.068,45.000,0.00,0.09,-272.69,-272.74,-13,10,-0,18.8,1.8,-32.8,19.3,3.0,-27.1,5.73,2.45,-24.4,25.2
2015-02-09 01:21:00,0.0,1.94344,0.00044,405.262,0.029,0.0469,0.0015,140.000,45.000,27656.43692,1.94433,405.489,31.696,45.068,45.000,0.00,0.09,-272.69,-272.75,-13,11,-0,18.8,1.8,-32.9,19.3,3.0,-27.1,5.73,2.44,-24.3,25.2
2015-02-09 01:22:00,0.0,1.94339,0.00038,405.267,0.035,0.0478,0.0013,140.001,45.000,27656.38289,1.94434,405.500,31.726,45.068,45.000,0.00,0.09,-272.69,-272.75,-13,11,-0,18.8,1.8,-32.9,19.2,3.0,-27.1,5.73,2.45,-24.4,25.2
2015-02-09 01:23:00,0.0,1.94353,0.00033,405.258,0.045,0.0478,0.0014,140.000,45.000,27657.83462,1.94444,405.490,31.735,45.068,44.999,0.00,0.09,-272.69,-272.75,-13,11,-0,18.8,1.8,-32.7,19.2,3.0,-27.1,5.73,2.49,-24.4,25.2
2015-02-09 01:24:00,0.0,1.94284,0.00035,405.259,0.037,0.0478,0.0017,139.999,45.000,27658.01089,1.94379,405.491,31.720,45.068,45.000,0.00,0.09,-272.68,-272.74,-13,10,-0,18.8,1.8,-32.7,19.2,3.0,-27.1,5.73,2.51,-24.4,25.2
2015-02-09 01:25:00,0.0,1.94219,0.00028,405.221,0.027,0.0489,0.0015,139.998,45.000,27658.05933,1.94313,405.460,31.731,45.068,45.000,0.00,0.09,-272.69,-272.75,-13,10,-0,18.7,1.8,-32.7,19.2,3.0,-27.1,5.73,2.51,-24.3,25.2
2015-02-09 01:26:00,0.0,1.94229,0.00037,405.224,0.024,0.0492,0.0016,140.001,45.000,27657.46967,1.94322,405.463,31.749,45.068,45.000,0.00,0.09,-272.70,-272.75,-13,11,-0,18.7,1.8,-32.6,19.2,3.0,-27.1,5.73,2.48,-24.4,25.2
2015-02-09 01:27:00,0.0,1.94239,0.00038,405.229,0.027,0.0494,0.0012,140.001,45.000,27656.66633,1.94336,405.469,31.757,45.068,45.000,0.00,0.09,-272.69,-272.74,-13,11,-0,18.7,1.8,-32.5,19.2,3.0,-27.1,5.73,2.44,-24.4,25.2
2015-02-09 01:28:00,0.0,1.94213,0.00040,405.203,0.031,0.0500,0.0014,140.000,45.000,27655.67627,1.94309,405.445,31.803,45.068,45.000,0.00,0.09,-272.69,-272.74,-13,11,-0,18.7,1.8,-32.5,19.2,3.0,-27.1,5.73,2.44,-24.4,25.2
2015-02-09 01:29:00,0.0,1.94220,0.00041,405.186,0.021,0.0494,0.0008,140.001,45.000,27656.03760,1.94313,405.428,31.813,45.068,44.999,0.00,0.09,-272.69,-272.75,-13,10,-0,18.7,1.9,-32.3,19.2,3.0,-27.1,5.73,2.46,-24.4,25.2
2015-02-09 01:30:00,0.0,1.94187,0.00040,405.161,0.041,0.0514,0.0012,139.999,45.000,27656.33361,1.94286,405.411,31.812,45.068,44.999,0.00,0.09,-272.69,-272.75,-13,11,-0,18.7,1.9,-32.2,19.2,3.0,-27.1,5.73,2.50,-24.4,25.2
2015-02-09 01:31:00,0.0,1.94198,0.00036,405.186,0.028,0.0514,0.0014,139.998,45.000,27656.74918,1.94298,405.436,31.811,45.068,44.999,0.00,0.09,-272.69,-272.74,-13,11,-0,18.7,1.9,-32.1,19.2,3.0,-27.1,5.73,2.51,-24.4,25.1
2015-02-09 01:32:00,0.0,1.94208,0.00038,405.179,0.030,0.0508,0.0018,140.001,45.000,27657.16920,1.94306,405.427,31.811,45.068,44.999,0.00,0.09,-272.69,-272.74,-13,11,-0,18.7,1.9,-32.1,19.2,3.0,-27.1,5.73,2.50,-24.4,25.1
2015-02-09 01:33:00,0.0,1.94136,0.00042,405.143,0.028,0.0526,0.0016,140.000,45.000,27655.22787,1.94236,405.399,31.813,45.068,45.000,0.00,0.09,-272.69,-272.74,-13,11,-0,18.7,1.9,-32.0,19.2,3.0,-27.1,5.73,2.46,-24.4,25.1
2015-02-09 01:34:00,0.0,1.94147,0.00030,405.154,0.029,0.0522,0.0014,140.001,45.000,27656.40235,1.94248,405.409,31.805,45.068,45.000,0.00,0.09,-272.69,-272.73,-13,10,-0,18.7,2.0,-31.8,19.2,3.0,-27.1,5.73,2.44,-24.4,25.1
2015-02-09 01:35:00,0.0,1.94139,0.00044,405.153,0.030,0.0530,0.0016,139.998,45.000,27654.52724,1.94238,405.408,31.761,45.068,45.000,0.00,0.09,-272.68,-272.74,-13,11,-0,18.8,2.0,-31.8,19.2,3.0,-27.1,5.73,2.45,-24.4,25.1
2015-02-09 01:36:00,0.0,1.94151,0.00040,405.144,0.041,0.0529,0.0016,140.000,45.000,27655.23593,1.94253,405.404,31.750,45.069,45.000,0.00,0.09,-272.69,-272.75,-13,11,-0,18.7,2.0,-31.8,19.2,3.0,-27.1,5.73,2.48,-24.4,25.1
2015-02-09 01:37:00,0.0,1.94157,0.00038,405.148,0.032,0.0524,0.0015,140.000,45.000,27656.21685,1.94257,405.404,31.741,45.069,45.000,0.00,0.09,-272.69,-272.75,-13,11,-0,18.7,2.0,-31.8,19.2,3.0,-27.1,5.73,2.51,-24.4,25.1
2015-02-09 01:38:00,0.0,1.94141,0.00041,405.130,0.028,0.0521,0.0014,139.999,45.000,27655.68413,1.94243,405.382,31.710,45.069,45.000,0.00,0.09,-272.69,-272.75,-13,11,-0,18.7,2.0,-31.9,19.2,3.0,-27.1,5.73,2.51,-24.3,25.1
2015-02-09 01:39:00,0.0,1.94136,0.00024,405.139,0.033,0.0530,0.0015,139.999,45.000,27655.58087,1.94236,405.397,31.688,45.069,45.001,0.00,0.09,-272.69,-272.74,-13,11,-0,18.7,2.0,-31.9,19.2,3.0,-27.1,5.73,2.49,-24.3,25.1
2015-02-09 01:40:00,0.0,1.94195,0.00046,405.127,0.031,0.0529,0.0015,140.002,45.000,27656.73526,1.94296,405.386,31.690,45.069,45.001,0.00,0.09,-272.69,-272.75,-13,11,-0,18.7,2.0,-31.8,19.2,3.0,-27.1,5.73,2.45,-24.4,25.1
2015-02-09 01:41:00,0.0,1.94199,0.00038,405.144,0.034,0.0524,0.0017,140.000,45.000,27654.71836,1.94296,405.398,31.688,45.069,45.001,0.00,0.09,-272.68,-272.74,-13,11,-0,18.7,1.9,-32.0,19.2,3.0,-27.1,5.73,2.44,-24.4,25.1
2015-02-09 01:42:00,0.0,1.94215,0.00036,405.153,0.031,0.0519,0.0016,140.001,45.000,27657.01405,1.94313,405.407,31.687,45.069,45.001,0.00,0.09,-272.69,-272.74,-13,11,0,18.7,1.9,-32.0,19.2,3.0,-27.1,5.73,2.45,-24.4,25.1
2015-02-09 01:43:00,0.0,1.94211,0.00043,405.167,0.025,0.0520,0.0013,139.999,45.000,27656.25819,1.94314,405.420,31.689,45.069,45.001,0.00,0.09,-272.69,-272.75,-13,10,0,18.7,1.9,-32.0,19.2,3.0,-27.1,5.73,2.49,-24.4,25.1
2015-02-09 01:44:00,0.0,1.94212,0.00032,405.142,0.024,0.0520,0.0021,140.001,45.000,27658.88375,1.94309,405.395,31.695,45.069,45.000,0.00,0.09,-272.69,-272.74,-13,10,-0,18.7,1.9,-32.0,19.2,3.0,-27.1,5.73,2.51,-24.3,25.1
2015-02-09 01:45:00,0.0,1.94244,0.00047,405.163,0.031,0.0517,0.0012,140.001,45.000,27658.53471,1.94344,405.415,31.709,45.069,45.000,0.00,0.09,-272.69,-272.74,-13,11,-0,18.7,1.9,-32.0,19.2,3.0,-27.1,5.73,2.51,-24.3,25.1
2015-02-09 01:46:00,0.0,1.94255,0.00043,405.151,0.029,0.0506,0.0012,140.000,45.000,27656.92313,1.94349,405.397,31.723,45.069,45.000,0.00,0.09,-272.70,-272.75,-13,11,-0,18.7,1.9,-32.0,19.2,3.0,-27.1,5.73,2.48,-24.3,25.1